EW7404 Weather Reports


time (UTC)temp
F
wind
direction
speed
knots
gust
knots
rain 1hr
in
rain 24hr
in
rain mn
in
humidity
%
barometer
mb
20260906052015 48 346 7.8 19.1 0.00 0.65 0.22 86 962.0
20260906051015 48 1 7.0 9.6 0.00 0.65 0.22 85 961.9
20260906050015 49 12 7.8 13.0 0.00 0.65 0.22 83 961.9
20260906045014 49 7 6.1 8.7 0.00 0.65 0.22 82 961.7
20260906044015 50 355 5.2 7.8 0.00 0.65 0.22 79 961.6
20260906043015 50 6 7.8 11.3 0.00 0.65 0.22 78 961.6
20260906042014 51 345 6.1 8.7 0.00 0.65 0.22 76 961.5
20260906041015 51 334 8.7 10.4 0.00 0.65 0.22 72 961.5
20260906040015 52 335 7.0 8.7 0.00 0.65 0.22 69 961.4
20260906035015 51 332 6.1 7.0 0.01 0.65 0.22 70 961.4
20260906034015 51 305 4.3 5.2 0.01 0.66 0.22 66 961.4
20260906033035 51 307 3.5 4.3 0.01 0.66 0.22 63 961.4
20260906032015 52 329 4.3 6.1 0.01 0.66 0.22 61 961.3
20260906031014 53 314 5.2 7.0 0.01 0.66 0.22 59 961.3
20260906030015 53 324 4.3 5.2 0.01 0.66 0.22 58 961.2
20260906025015 53 322 5.2 6.1 0.00 0.65 0.21 58 961.2
20260906024016 53 307 5.2 6.1 0.00 0.65 0.21 57 961.2
20260906023015 54 319 6.1 7.0 0.00 0.65 0.21 57 961.2
20260906022015 54 318 5.2 6.1 0.00 0.65 0.21 57 961.3
20260906021015 53 309 4.3 5.2 0.00 0.65 0.21 56 961.3
20260906020015 53 318 4.3 6.1 0.00 0.65 0.21 56 961.3
20260906015015 54 339 6.1 7.0 0.00 0.65 0.21 55 961.3
20260906014015 54 348 6.1 9.6 0.21 0.65 0.21 54 961.4
20260906013015 54 345 5.2 6.1 0.21 0.65 0.21 53 961.4
20260906012015 55 357 7.0 9.6 0.21 0.65 0.21 53 961.5
20260906011015 55 346 7.8 10.4 0.21 0.65 0.21 52 961.5
20260906010015 55 346 7.0 8.7 0.21 0.65 0.21 51 961.5
20260906005056 55 346 7.0 9.6 0.21 0.65 0.21 50 961.5
20260906004035 55 345 7.0 9.6 0.00 0.44 0.00 49 961.5
20260906003016 55 341 8.7 10.4 0.00 0.44 0.00 49 961.5
20260906002015 56 342 7.8 10.4 0.00 0.44 0.00 48 961.6
20260906001055 56 330 7.0 10.4 0.00 0.44 0.00 47 961.7
20260906000015 56 347 8.7 10.4 0.00 0.44 0.00 47 961.7
20260905235015 56 340 7.8 10.4 0.00 0.44 0.00 47 961.7
20260905234016 56 342 7.0 9.6 0.00 0.44 0.00 46 961.8
20260905233035 56 328 7.0 9.6 0.00 0.44 0.00 46 961.9
20260905232015 57 318 7.8 11.3 0.00 0.44 0.00 44 961.9
20260905231015 57 314 11.3 14.8 0.00 0.44 0.00 44 961.9
20260905230035 57 296 11.3 14.8 0.00 0.44 0.00 44 961.7
20260905225015 57 307 12.2 15.6 0.00 0.44 0.00 43 961.8
20260905224016 57 293 12.2 14.8 0.00 0.44 0.00 43 961.6
20260905223035 57 296 13.9 16.5 0.00 0.44 0.00 48 961.7
20260905222016 57 291 13.9 16.5 0.00 0.44 0.00 52 961.5
20260905221015 57 287 14.8 17.4 0.00 0.44 0.00 51 961.5
20260905220015 57 283 13.9 18.2 0.00 0.44 0.00 52 961.5
20260905215035 57 283 13.9 17.4 0.00 0.44 0.00 52 961.5
20260905214015 57 283 13.9 17.4 0.00 0.44 0.00 50 961.5
20260905213035 57 275 11.3 14.8 0.00 0.44 0.00 47 961.5
20260905212017 57 283 13.9 16.5 0.00 0.44 0.00 50 961.6
20260905211015 57 284 12.2 14.8 0.00 0.44 0.00 43 961.7
20260905210015 58 294 10.4 13.0 0.00 0.44 0.00 39 961.8
20260905205015 58 303 8.7 10.4 0.00 0.44 0.44 37 961.9
20260905204015 59 310 9.6 11.3 0.00 3.01 0.44 38 961.8
20260905203016 59 302 8.7 12.2 0.00 3.01 0.44 39 961.7
20260905202035 59 287 8.7 10.4 0.00 3.01 0.44 40 961.6
20260905201015 59 283 7.0 8.7 0.00 3.01 0.44 38 961.6
20260905200015 59 300 7.8 9.6 0.00 3.01 0.44 39 961.8
20260905195015 59 303 7.8 10.4 0.00 3.01 0.44 40 961.8
20260905194016 59 299 7.8 10.4 0.00 3.01 0.44 37 961.7
20260905193015 59 293 7.0 8.7 0.00 3.01 0.44 37 961.7
20260905192015 59 300 6.1 7.8 0.00 3.01 0.44 37 961.7
20260905191056 59 325 7.0 9.6 0.00 3.01 0.44 38 961.8
20260905190036 59 308 7.0 8.7 0.00 3.01 0.44 38 961.8
20260905185015 59 315 7.8 9.6 0.00 3.01 0.44 38 961.7
20260905184036 59 321 5.2 7.8 0.00 3.01 0.44 38 961.6
20260905183015 59 318 7.8 10.4 0.00 3.01 0.44 37 961.5
20260905182036 59 312 9.6 12.2 0.00 3.01 0.44 36 961.5
20260905181035 59 292 9.6 10.4 0.00 3.01 0.44 39 961.3
20260905180015 59 284 9.6 10.4 0.00 3.01 0.44 39 961.2
20260905175015 59 278 8.7 9.6 0.00 3.01 0.44 40 961.2
20260905174015 59 300 5.2 7.0 0.00 3.01 0.44 41 961.3
20260905173015 59 323 5.2 7.0 0.00 3.01 0.44 42 961.3
20260905172015 59 327 4.3 5.2 0.00 3.01 0.44 43 961.3
20260905171015 59 336 5.2 7.0 0.00 3.01 0.44 43 961.2
20260905170055 59 324 6.1 7.8 0.00 3.01 0.44 42 961.2
20260905165015 60 340 7.0 10.4 0.00 3.01 0.44 42 961.2
20260905164035 60 345 7.8 9.6 0.00 3.01 0.44 41 961.3
20260905163015 60 344 8.7 11.3 0.00 3.01 0.44 41 961.3
20260905162016 61 335 7.0 9.6 0.00 3.01 0.44 41 961.3
20260905161016 61 341 6.1 8.7 0.00 3.01 0.44 40 961.3
20260905160015 61 345 7.8 12.2 0.00 3.02 0.44 41 961.3
20260905155015 61 342 7.0 12.2 0.00 3.02 0.44 41 961.5
20260905154015 61 357 7.8 13.0 0.00 3.02 0.44 42 961.5
20260905153016 61 344 9.6 13.0 0.24 3.02 0.44 40 961.4
20260905152015 62 340 6.1 10.4 0.24 3.02 0.44 39 961.4
20260905151035 61 343 8.7 13.0 0.24 3.02 0.44 39 961.3
20260905150015 62 336 7.8 12.2 0.24 3.02 0.44 37 961.4
20260905145015 62 338 7.0 10.4 0.24 3.02 0.44 36 961.3
20260905144015 62 340 5.2 9.6 0.24 3.02 0.44 35 961.3
20260905143015 62 334 5.2 9.6 0.00 2.78 0.20 34 961.4
20260905142015 62 321 4.3 8.7 0.00 2.78 0.20 33 961.5
20260905141015 61 348 8.7 13.9 0.00 2.78 0.20 35 961.4
20260905140015 61 351 7.8 13.0 0.00 2.78 0.20 35 961.5
20260905135016 62 339 4.3 9.6 0.00 3.02 0.20 33 961.3
20260905134015 61 343 5.2 10.4 0.00 3.02 0.20 33 961.3
20260905133016 61 341 7.0 50.4 0.00 3.02 0.20 33 961.5
20260905132015 61 328 5.2 9.6 0.00 3.02 0.20 33 961.4
20260905131015 61 327 3.5 7.8 0.00 3.02 0.20 33 961.4
20260905130016 60 354 7.0 11.3 0.00 3.02 0.20 33 961.3
20260905125015 60 339 7.0 12.2 0.00 3.02 0.20 33 961.5
20260905124015 60 349 7.8 13.0 0.00 3.02 0.20 33 961.5
20260905123015 59 332 5.2 9.6 0.00 3.02 0.20 33 961.4
20260905122015 59 2 6.1 10.4 0.00 3.02 0.20 33 961.4
20260905121017 60 346 5.2 10.4 0.00 3.02 0.20 35 961.6
20260905120015 59 350 7.0 9.6 0.20 3.02 0.20 36 961.6
20260905115015 59 10 5.2 10.4 0.20 3.02 0.20 39 961.6
20260905114015 60 354 7.0 11.3 0.20 3.02 0.20 42 961.4
20260905113015 59 340 7.0 9.6 0.20 3.02 0.20 42 961.4
20260905112016 59 6 5.2 9.6 0.20 3.02 0.20 43 961.4
20260905111015 58 356 7.0 12.2 0.20 3.02 0.20 44 961.6
20260905110035 58 350 5.2 10.4 0.00 2.82 0.01 38 961.3
20260905105015 58 352 6.1 10.4 0.00 2.82 0.01 42 961.3
20260905104015 58 350 4.3 7.8 0.00 2.82 0.01 40 961.7
20260905103015 58 334 6.1 8.7 0.00 2.82 0.01 43 961.3
20260905102016 58 354 5.2 9.6 0.00 2.82 0.01 45 961.2
20260905101015 58 352 6.1 8.7 0.00 2.82 0.01 43 961.2
20260905100015 58 345 4.3 7.8 0.00 2.82 0.01 42 961.3
20260905095015 57 355 3.5 7.0 0.00 2.82 0.01 46 961.2
20260905094015 57 355 3.5 6.1 0.00 2.82 0.01 47 961.5
20260905093015 56 359 4.3 7.0 0.00 2.82 0.01 49 961.2
20260905092016 58 341 3.5 6.1 0.00 2.82 0.01 41 961.1
20260905091015 58 348 2.6 5.2 0.00 2.82 0.01 34 961.1
20260905090035 59 354 2.6 5.2 0.00 2.82 0.01 30 961.5
20260905085016 58 62 1.7 4.3 0.00 2.82 0.01 29 961.0
20260905084015 56 288 0.9 2.6 0.00 2.82 0.01 38 961.1
20260905083015 56 337 1.7 3.5 0.00 2.82 0.01 39 961.0
20260905082015 57 358 1.7 5.2 0.00 2.82 0.01 35 960.8
20260905081015 56 6 1.7 4.3 0.00 2.82 0.01 37 960.7
20260905080015 56 354 2.6 4.3 0.00 2.82 0.01 32 960.6
20260905075015 57 354 1.7 4.3 0.00 2.82 0.01 31 960.4
20260905074015 57 27 3.5 7.8 0.00 2.82 0.01 25 960.4
20260905073015 56 357 0.9 1.7 0.00 2.82 0.01 28 960.5
20260905072015 57 16 2.6 5.2 0.00 2.82 0.01 22 960.5
20260905071015 55 79 1.7 4.3 0.00 2.82 0.01 24 960.3
20260905070015 54 0 2.6 3.5 0.00 2.82 0.01 19 960.2
20260905065016 55 14 2.6 4.3 0.00 2.82 0.01 21 960.3
20260905064015 58 27 2.6 5.2 0.00 2.82 0.01 21 960.0
20260905063036 57 127 2.6 6.1 0.00 2.82 0.01 24 960.0
20260905062015 56 179 1.7 5.2 0.00 3.06 0.01 24 960.0
20260905061036 55 359 1.7 4.3 0.00 3.06 0.01 21 960.0
20260905060015 54 334 2.6 5.2 0.00 3.06 0.01 22 959.8
20260905055016 53 281 3.5 6.1 0.00 3.06 0.01 27 959.8
20260905054016 53 291 2.6 6.1 0.00 3.06 0.01 30 959.8
20260905053015 52 271 2.6 5.2 0.00 3.06 0.01 33 959.8